Powrót do katalogu

LEMUR 2 LLOYD

AktywnyPogodaSSO
NORAD 60577·PAYLOAD·🇺🇸 United States

Wystrzelony Aug 16, 2024 z Vandenberg Space Force Base

Loading…

Następne Przeloty (najbliższe 24 godziny)

TLE

ŚwieżeSource: Space-Track

Epoka: Sep 14, 2026, 04:06 UTC

1 60577U 24149DP  26257.17111927  .00007564  00000-0  46048-3 0  9993
2 60577  97.6699 338.4197 0003491 184.2880 175.8320 15.10695454113827

Śledź LEMUR 2 LLOYD w czasie rzeczywistym z AllMySat

Download on the App Store